Regional Weather Roundup
Issued by NWS

Home | Current Version | Previous Version | Graphics & Text | Print | Product List | Glossary On
Versions: 1 2 3 4 5 6 7 8 9 10 11 12 13 14 15 16 17 18 19 20 21 22 23 24 25 26 27 28 29 30 31 32 33 34 35 36 37 38 39 40 41 42 43 44 45 46 47 48 49 50
000
ASUS43 KOAX 291602
RWRNE
WEATHER ROUNDUP FOR NEBRASKA
NATIONAL WEATHER SERVICE OMAHA NE
1100 AM CDT FRI MAY 29 2015

NOTES: SATELLITE DATA IS BEING USED TO AUGMENT CLOUD COVER ABOVE
       12000 FEET.
       "FAIR" INDICATES FEW OR NO CLOUDS BELOW 12,000 FEET WITH NO
       SIGNIFICANT WEATHER AND/OR OBSTRUCTIONS TO VISIBILITY.

  * THESE STATIONS DO NOT REPORT WEATHER SUCH AS RAIN...SNOW OR FOG.

NEZ001>004-019>022-054>056-291700-
NEBRASKA PANHANDLE

CITY           SKY/WX    TMP DP  RH WIND       PRES   REMARKS
SCOTTSBLUFF    LGT RAIN  54  52  93 N9        30.17R
ALLIANCE       LGT RAIN  56  53  90 NW7       30.12F
CHADRON        CLOUDY    52  48  86 NE20G29   30.17R
KIMBALL          N/A    N/A N/A N/A MISG        N/A
SIDNEY         CLOUDY    57  50  77 NW15      30.16S
$$

NEZ057>060-069>072-079>082-291700-
SOUTHWEST NEBRASKA

CITY           SKY/WX    TMP DP  RH WIND       PRES   REMARKS
NORTH PLATTE   PTSUNNY   65  55  70 NW12      30.04S
IMPERIAL         N/A     65  54  67 N13       30.08S
LEXINGTON      SUNNY     69  59  69 NW13      30.00S
MCCOOK         MOSUNNY   68  55  63 NW13      30.03F
$$

NEZ005>010-023>029-035>040-094-291700-
NORTH CENTRAL NEBRASKA

CITY           SKY/WX    TMP DP  RH WIND       PRES   REMARKS
VALENTINE      CLOUDY    54  53  97 N16G24    30.07R
AINSWORTH      CLOUDY    58  56  94 NW22      30.05R
BROKEN BOW     MOSUNNY   67  58  72 NW20      30.00R
ORD            MOSUNNY   68  59  73 NW14      29.97R
$$

NEZ041-046>049-061>064-073>077-083>087-291700-
SOUTH CENTRAL NEBRASKA

CITY           SKY/WX    TMP DP  RH WIND       PRES   REMARKS
GRAND ISLAND   PTSUNNY   69  59  70 NW8       29.96S
AURORA         PTSUNNY   68  62  81 NW7       29.96S
HASTINGS       PTSUNNY   67  59  75 NW10      29.97S
KEARNEY *      MOSUNNY   70  55  60 N7        29.98S
$$

NEZ011>018-030>034-042>045-291700-
NORTHEAST NEBRASKA

CITY           SKY/WX    TMP DP  RH WIND       PRES   REMARKS
NORFOLK        PTSUNNY   68  60  75 NW8G18    29.92R
ALBION         PTSUNNY   68  58  72 NW12      29.94S
BLAIR          CLOUDY    70  61  71 S13       29.92S
COLUMBUS *     CLOUDY    70  59  68 W5        29.94S
FREMONT        CLOUDY    71  62  72 W5        29.92F
TEKAMAH        CLOUDY    72  64  76 SW8       29.90F
$$

NEZ050>053-065>068-078-088>093-291700-
SOUTHEAST NEBRASKA

CITY           SKY/WX    TMP DP  RH WIND       PRES   REMARKS
LINCOLN        CLOUDY    70  60  70 W8        29.94S
OMAHA EPPLEY   CLOUDY    72  63  73 SW9       29.92F
BEATRICE       CLOUDY    69  60  72 SW6       29.96R
FALLS CITY     CLOUDY    70  66  87 S6        29.96R
NEBRASKA CITY  CLOUDY    71  65  82 SW12      29.96R
PLATTSMOUTH    CLOUDY    71  65  82 CALM      29.93S
$$

NEZ044-045-051>053-067-291700-
OMAHA AREA

CITY           SKY/WX    TMP DP  RH WIND       PRES   REMARKS
OMAHA EPPLEY   CLOUDY    72  63  73 SW9       29.92F
BLAIR          CLOUDY    70  61  71 S13       29.92S
FREMONT        CLOUDY    71  62  72 W5        29.92F
OFFUTT AFB     CLOUDY    72  63  74 SW9       29.92R
PLATTSMOUTH    CLOUDY    71  65  82 CALM      29.93S
WAHOO          FAIR      71  61  71 SW5       29.92S
$$


USA.gov is the U.S. government's official web portal to all federal, state and local government web resources and services.